Regional Weather Roundup
Issued by NWS Wakefield, VA

Home | Current Version | Previous Version | Graphics & Text | Print | Product List | Glossary On
Versions: 1 2 3 4 5 6 7 8 9 10 11 12 13 14 15 16 17 18 19 20 21 22 23 24 25 26 27 28 29 30 31 32 33 34 35 36 37 38 39 40 41 42 43 44 45 46 47 48 49 50
000
ASUS41 KAKQ 280415
RWRAKQ

REGIONAL WEATHER ROUNDUP
NATIONAL WEATHER SERVICE WAKEFIELD VA
1200 AM EDT THU MAY 28 2015

Note: "fair" indicates few or no clouds below 12,000 feet with no
significant weather and/or obstructions to visibility. * = Denotes
station may not report precipitation (e.g., rain,snow,etc.),
thunder or fog.

VAZ042-051-052>054-056-280500-
NORTHERN VIRGINIA

CITY           SKY/WX    TMP DP  RH WIND       PRES   REMARKS
WASH NATIONAL  PTCLDY    77  69  76 CALM      30.15S
DULLES         PTCLDY    70  68  93 CALM      30.15R
FORT BELVOIR   NOT AVBL
QUANTICO       CLEAR     76  71  85 S6        30.15S
FREDERICKSBRG* PTCLDY    78  69  74 S7        30.14F
STAFFORD*      CLEAR     72  66  81 CALM      30.19S
WARRENTON      CLEAR     69  67  94 CALM      30.15R
CULPEPER*      CLEAR     66  65  97 CALM      30.15S
MANASSAS*      CLEAR     70  70 100 CALM      30.15R
LEESBURG*      CLEAR     70  70 100 NW5       30.15F
WINCHESTER     MOCLDY    70  64  83 CALM      30.15S
FRONT ROYAL*   FAIR      68  68 100 S5        30.14S
LURAY*         FAIR      68  68 100 CALM      30.16S
$$

VAZ048-049-060>072-079>083-280500-
CENTRAL AND SOUTH CENTRAL VIRGINIA

CITY           SKY/WX    TMP DP  RH WIND       PRES   REMARKS
RICHMOND       MOCLDY    76  64  66 S13       30.18S
CHESTERFIELD*  NOT AVBL
PETERSBURG*    CLOUDY    73  71  93 S5        30.20S
HANOVER        PTCLDY    76  68  76 S8        30.19S
TAPPAHANNOCK*  PTCLDY    76  64  66 S5        30.18S
QUINTON*       FAIR      74  67  81 SW6       30.18S
CHARLOTTSVILLE CLEAR     72  64  76 SW6       30.16S
GORDONSVILLE*  FAIR      67  64  93 CALM      30.16R
ORANGE*        CLEAR     66  64  94 CALM      30.17S
LOUISA*        CLEAR     73  66  78 S3        30.16S
BUMPASS*       FAIR      74  66  75 SE6       30.17S
FARMVILLE*     CLEAR     71  65  81 S6        30.17S
CREWE*         FAIR      73  66  77 S5        30.19F
FORT PICKETT*  FAIR      70  67  89 S8        30.20S
CHASE CITY*    FAIR      73  72  94 S3        30.21S
CLARKSVILLE*   FAIR      70  68  94 S5        30.20S
SOUTH HILL*    CLOUDY    70  67  91 S7        30.27S
LAWRENCEVILLE* FAIR      70  68  94 SW3       30.21S
EMPORIA*       LGT RAIN  68  68 100 CALM      30.22F
$$

VAZ088>098-280500-
SOUTHEAST VIRGINIA

CITY           SKY/WX    TMP DP  RH WIND       PRES   REMARKS
NORFOLK        PTCLDY    74  64  71 S15       30.20F
VIRGINIA BEACH PTCLDY    73  65  75 S9        30.21F
NORFOLK NAVAL  MOCLDY    78  66  66 S10       30.21F
WEST POINT*    CLOUDY    75  68  78 S5        30.20F
SALUDA*        MOCLDY    72  69  92 SW7       30.18S
NEWPORT NEWS   CLOUDY    79  67  66 SW9       30.20F
LANGLEY AFB    NOT AVBL
FORT EUSTIS    NOT AVBL
WILLIAMSBURG*  CLOUDY    73  72  94 S5        30.20F
HR EXEC AP*    FAIR      73  64  73 S7        30.23F
FRANKLIN*      CLOUDY    73  68  87 S6        30.21F
WAKEFIELD      CLOUDY    72  68  87 S6        30.20F
$$

VAZ020-022-025-037-045-280500-
WEST CENTRAL AND SOUTHWEST VIRGINIA

CITY           SKY/WX    TMP DP  RH WIND       PRES   REMARKS
STAUNTON*      PTCLDY    70  64  80 CALM      30.20S
WAYNESBORO*    FAIR      68  62  82 CALM      30.20S
HOT SPRINGS VA PTCLDY    65  56  72 SW8       30.30R
LYNCHBURG      CLEAR     67  65  93 SW3       30.21R
DANVILLE       PTCLDY    71  65  81 S3        30.21R
SOUTH BOSTON*  FAIR      70  65  86 MISG      30.20S
MARTINSVILLE   CLEAR     63  63 100 CALM      30.24S
ROANOKE        PTCLDY    70  63  78 W3        30.23R
BLACKSBURG     CLEAR     66  62  87 CALM      30.29R
DUBLIN*        CLEAR     65  65  97 CALM      30.27R
MARION*        CLEAR     62  59  90 CALM      30.31R
HILLSVILLE*    CLEAR     65  63  93 S5        30.29S
RICHLANDS*     FAIR      67  58  74 S3        30.27S
WISE*          MOCLDY    66  55  68 S3        30.28S
ABINGDON*      PTCLDY    65  60  85 CALM      30.26S
$$

MDZ021>025-VAZ099-100-280500-
SOUTHERN MARYLAND AND THE DELMARVA PENINSULA

CITY           SKY/WX    TMP DP  RH WIND       PRES   REMARKS
PATUXENT RIVER CLOUDY    75  68  78 S8G17     30.16R
BAY BRIDGE APT NOT AVBL
LEONARDTOWN    NOT AVBL
DOVER          NOT AVBL
GEORGETOWN     CLEAR     70  65  84 S9        30.18F
EASTON         NOT AVBL
CAMBRIDGE      NOT AVBL
SALISBURY      PTCLDY    70  65  84 S8        30.19R
OCEAN CITY     CLEAR     68  63  84 SW14      30.20F
WALLOPS ISLAND PTCLDY    67  64  90 S17G23    30.21S
ACCOMACK*      MOCLDY    72  68  88 S12G17    30.20S
$$

NCZ012>017-030>032-280500-
NORTH CENTRAL AND EASTERN NORTH CAROLINA

CITY           SKY/WX    TMP DP  RH WIND       PRES   REMARKS
ROANOKE RAPIDS FAIR      68  68 100 S3        30.22S
RALEIGH        MOCLDY    72  67  84 SW8       30.23S
ELIZABETH CITY PTCLDY    71  65  81 S7        30.23F
AHOSKIE*       CLOUDY    72  66  82 S3        30.22F
EDENTON*       CLEAR     72  66  83 S9        30.24S
CURRITUCK*     CLEAR     72  63  72 S3        30.24F
KILL DEVIL HLS CLEAR     71  63  76 SW5       30.24F
MANTEO         CLEAR     71  64  78 SW10      30.26S
CAPE HATTERAS  CLEAR     71  61  70 SW8       30.27S
TARBORO*       DRIZZLE   73  68  84 S5        30.23F
GOLDSBORO      NOT AVBL
WASHINGTON     PTCLDY    71  66  82 S5        30.24F
GREENVILLE     MOCLDY    72  68  88 S6        30.24S
NEW BERN       CLEAR     69  64  84 S3        30.26S
WILMINGTON     PTCLDY    71  65  81 SE5       30.23F
$$

VAZ048-280500-
ELSEWHERE

CITY           SKY/WX    TMP DP  RH WIND       PRES   REMARKS
HARRISBURG PA  PTCLDY    69  65  86 E3        30.13S
BALTIMORE      PTCLDY    72  68  87 CALM      30.14F
ANNAPOLIS      MOCLDY    72  68  87 SE5       30.14F
ANDREWS AFB    NOT AVBL
PHILADELPHIA   MOCLDY    73  70  90 S8        30.16S
HENDERSON NC   PTCLDY    69  67  92 S5        30.22F
GREENSBORO     MOCLDY    72  67  84 S7        30.22S
ROCKY MOUNT    CLOUDY    72  70  93 SE3       30.23S
$$

VAZ100-280500-
MARINE

STATION/POSITION TIME  TEMP    WIND        PRES    WAVE   SWELL
                       AIR SEA DIR/SP/G            HT/PER HT/PER
                 (UTC) (F)     (DEG/KT/KT) (MB)    (FT/S) (FT/S)
BRANDYWINE LGT   0300   69 65  210/ 10/ 12 1022.0F
CAPE MAY NJ      0300   66 71  160/  8/ 14 1021.9R
LEWES DE         0300   72 62  200/  6/ 10 1021.9S
15NM E FENWICK I 0350   66 62              1022.1F   4/ 6
OCEAN-CITY-INLET 0300   63 63  210/ 11/ 12 1022.5F
WACHAPREAGUE VA  0300   72 77  210/ 14/ 18 1022.8F
THOMAS POINT MD  0400   71 69  170/ 14/ 15 1021.1F
GOOSES REEF MD   0400   71 69  190/ 10/ 12 1021.9S   1/ 2
COVE POINT MD    0300   72     190/ 11/ 15 1021.7F
SOLOMONS ISLAND  0300      72                N/A
BISHOPS HEAD MD  0300   75 73  180/ 16/ 22 1021.2R
PINEY POINT MD   0300          220/ 16/ 18   N/A
CAMBRIDGE MD     0300   74 72  170/  7/ 10 1021.1F
LEWISETTA VA     0300   75 75              1021.2R
RAPPAHANNOCK LGT 0300          180/ 21/ 24 1022.8F
STINGRAY PT      0400   75 73  200/ 14/ 17 1022.0S   2/ 3
YORK RVR RNG VA  0300   76     210/ 18/ 21 1021.8S
YORKTOWN VA      0300   76 71  200/  9/ 14 1022.1R
JAMESTOWN VA     0400   72 77  200/ 12/ 16 1021.2F
DOMINION TERM VA 0300   75     200/ 14/ 17 1023.1F
KIPTOPEKE VA     0300      78  200/ 12/ 16   N/A
CHES BAY BRIDGE  0300   74 72  180/ 12/ 19 1022.7S
CAPE HENRY VA    0300   73     190/ 11/ 16 1022.1R
CHESAPEAKE LGHT  0300   67     200/ 22/ 22 1024.0R
WILLOUBY STN VA  0300   74     190/ 18/ 20 1023.6F
CAPE HENRY BUOY  0328      63                N/A     3/ 6
1ST LANDING BUOY 0400      70              1022.5F
CAPE CHARLES BUO 0326      67                N/A     3/ 5   2/ 7
OFFSHORE WE BUOY 0311      65                N/A     3/ 5   2/12
64NM E OF VA BCH 0350   66 64  190/  6/  8 1024.3F   3/ 8   2/ 8
DUCK PIER NC     0300   72 56  200/ 12/ 17 1023.5R
44100 DUCK FRF   0324      64                N/A     2/ 7
44056 DUCK FRF   0311      59                N/A     2/ 7
OREGON INLET NC  0300   73 77  190/ 13/ 16 1024.8R
HATTERAS NC      0300   73 76  200/  4/  7 1024.6R
DIAMOND SHLS NC  0350   74 77  190/  8/ 10 1024.9F   3/ 7   3/ 7
CAPE LOOKOUT NC  0400   73     170/  6/  7 1024.2F
$$



USA.gov is the U.S. government's official web portal to all federal, state and local government web resources and services.